TimeMST,TemperatureF,Dew PointF,Humidity,Sea Level PressureIn,VisibilityMPH,Wind Direction,Wind SpeedMPH,Gust SpeedMPH,PrecipitationIn,Events,Conditions,WindDirDegrees,DateUTC
12:16 AM,-22.0,-31.0,63,30.28,-9999.0,Calm,Calm,-,N/A,,Clear,0,2013-01-05 07:16:00
12:36 AM,-23.8,-31.0,69,30.29,-9999.0,Calm,Calm,-,N/A,,Clear,0,2013-01-05 07:36:00
12:56 AM,-25.6,-32.8,69,30.29,-9999.0,Calm,Calm,-,N/A,,Clear,0,2013-01-05 07:56:00
1:16 AM,-25.6,-32.8,69,30.29,-9999.0,Calm,Calm,-,N/A,,Clear,0,2013-01-05 08:16:00
1:36 AM,-25.6,-34.6,63,30.30,-9999.0,Calm,Calm,-,N/A,,Clear,0,2013-01-05 08:36:00
1:56 AM,-25.6,-32.8,69,30.30,-9999.0,Calm,Calm,-,N/A,,Clear,0,2013-01-05 08:56:00
2:16 AM,-25.6,-32.8,69,30.32,-9999.0,Calm,Calm,-,N/A,,Clear,0,2013-01-05 09:16:00
2:36 AM,-25.6,-34.6,63,30.32,-9999.0,Calm,Calm,-,N/A,,Clear,0,2013-01-05 09:36:00
2:56 AM,-25.6,-34.6,63,30.32,-9999.0,Calm,Calm,-,N/A,,Clear,0,2013-01-05 09:56:00
3:16 AM,-27.4,-34.6,69,30.33,-9999.0,Calm,Calm,-,N/A,,Clear,0,2013-01-05 10:16:00
3:36 AM,-25.6,-34.6,63,30.33,-9999.0,Calm,Calm,-,N/A,,Clear,0,2013-01-05 10:36:00
3:56 AM,-27.4,-36.4,62,30.34,-9999.0,Calm,Calm,-,N/A,,Clear,0,2013-01-05 10:56:00
4:15 AM,-27.4,-36.4,62,30.35,-9999.0,North,4.6,-,N/A,,Clear,360,2013-01-05 11:15:00
4:56 AM,-27.4,-36.4,62,30.35,-9999.0,Calm,Calm,-,N/A,,Clear,0,2013-01-05 11:56:00
5:16 AM,-27.4,-36.4,62,30.36,-9999.0,Calm,Calm,-,N/A,,Clear,0,2013-01-05 12:16:00
5:36 AM,-29.2,-38.2,62,30.36,-9999.0,Calm,Calm,-,N/A,,Clear,0,2013-01-05 12:36:00
5:56 AM,-27.4,-36.4,62,30.37,-9999.0,Calm,Calm,-,N/A,,Clear,0,2013-01-05 12:56:00
6:16 AM,-27.4,-36.4,62,30.38,-9999.0,Calm,Calm,-,N/A,,Clear,0,2013-01-05 13:16:00
6:36 AM,-29.2,-38.2,62,30.38,-9999.0,Calm,Calm,-,N/A,,Clear,0,2013-01-05 13:36:00
6:56 AM,-27.4,-36.4,62,30.40,-9999.0,Calm,Calm,-,N/A,,Clear,0,2013-01-05 13:56:00
7:16 AM,-29.2,-38.2,62,30.41,-9999.0,Calm,Calm,-,N/A,,Clear,0,2013-01-05 14:16:00
7:36 AM,-31.0,-40.0,62,30.41,-9999.0,Calm,Calm,-,N/A,,Clear,0,2013-01-05 14:36:00
7:56 AM,-27.4,-36.4,62,30.41,-9999.0,Calm,Calm,-,N/A,,Clear,0,2013-01-05 14:56:00
8:16 AM,-27.4,-36.4,62,30.42,-9999.0,Calm,Calm,-,N/A,,Clear,0,2013-01-05 15:16:00
8:56 AM,-25.6,-34.6,63,30.42,-9999.0,Calm,Calm,-,N/A,,Clear,0,2013-01-05 15:56:00
9:16 AM,-22.0,-32.8,57,30.42,-9999.0,Calm,Calm,-,N/A,,Clear,0,2013-01-05 16:16:00
10:16 AM,-18.4,-27.4,63,30.43,-9999.0,Calm,Calm,-,N/A,,Clear,0,2013-01-05 17:16:00
10:36 AM,-16.6,-27.4,58,30.43,-9999.0,Calm,Calm,-,N/A,,Clear,0,2013-01-05 17:36:00
10:55 AM,-16.6,-25.6,64,30.43,-9999.0,Calm,Calm,-,N/A,,Clear,0,2013-01-05 17:55:00
11:16 AM,-14.8,-25.6,58,30.43,-9999.0,Calm,Calm,-,N/A,,Clear,0,2013-01-05 18:16:00
11:36 AM,-13.0,-22.0,64,30.42,-9999.0,Calm,Calm,-,N/A,,Clear,0,2013-01-05 18:36:00
11:56 AM,-9.4,-20.2,59,30.41,-9999.0,SW,3.5,-,N/A,,Clear,230,2013-01-05 18:56:00
12:16 PM,-9.4,-20.2,59,30.40,-9999.0,Calm,Calm,-,N/A,,Clear,0,2013-01-05 19:16:00
12:36 PM,-7.6,-18.4,59,30.39,-9999.0,Calm,Calm,-,N/A,,Clear,0,2013-01-05 19:36:00
12:56 PM,-7.6,-18.4,59,30.38,-9999.0,Calm,Calm,-,N/A,,Clear,0,2013-01-05 19:56:00
1:16 PM,-5.8,-16.6,60,30.38,-9999.0,Calm,Calm,-,N/A,,Clear,0,2013-01-05 20:16:00
1:36 PM,-7.6,-18.4,59,30.38,-9999.0,Calm,Calm,-,N/A,,Clear,0,2013-01-05 20:36:00
1:56 PM,-7.6,-16.6,65,30.38,-9999.0,Calm,Calm,-,N/A,,Clear,0,2013-01-05 20:56:00
2:16 PM,-5.8,-16.6,60,30.38,-9999.0,Calm,Calm,-,N/A,,Clear,0,2013-01-05 21:16:00
2:36 PM,-5.8,-16.6,60,30.39,-9999.0,Calm,Calm,-,N/A,,Clear,0,2013-01-05 21:36:00
2:56 PM,-5.8,-16.6,60,30.39,-9999.0,Calm,Calm,-,N/A,,Clear,0,2013-01-05 21:56:00
3:16 PM,-2.2,-14.8,55,30.39,-9999.0,Calm,Calm,-,N/A,,Clear,0,2013-01-05 22:16:00
3:56 PM,-4.0,-14.8,60,30.40,-9999.0,Calm,Calm,-,N/A,,Clear,0,2013-01-05 22:56:00
4:15 PM,-4.0,-14.8,60,30.40,-9999.0,Calm,Calm,-,N/A,,Clear,0,2013-01-05 23:15:00
4:36 PM,-5.8,-14.8,65,30.41,-9999.0,Calm,Calm,-,N/A,,Clear,0,2013-01-05 23:36:00
4:56 PM,-5.8,-14.8,65,30.41,-9999.0,Calm,Calm,-,N/A,,Clear,0,2013-01-05 23:56:00
5:16 PM,-9.4,-18.4,65,30.42,-9999.0,Calm,Calm,-,N/A,,Clear,0,2013-01-06 00:16:00
5:36 PM,-9.4,-18.4,65,30.43,-9999.0,Calm,Calm,-,N/A,,Clear,0,2013-01-06 00:36:00
5:56 PM,-9.4,-16.6,71,30.44,-9999.0,Calm,Calm,-,N/A,,Clear,0,2013-01-06 00:56:00
6:16 PM,-13.0,-18.4,77,30.44,-9999.0,Calm,Calm,-,N/A,,Clear,0,2013-01-06 01:16:00
6:56 PM,-13.0,-20.2,70,30.45,-9999.0,Calm,Calm,-,N/A,,Clear,0,2013-01-06 01:56:00
7:16 PM,-14.8,-20.2,77,30.46,-9999.0,Calm,Calm,-,N/A,,Clear,0,2013-01-06 02:16:00
7:36 PM,-16.6,-23.8,70,30.46,-9999.0,Calm,Calm,-,N/A,,Clear,0,2013-01-06 02:36:00
7:56 PM,-16.6,-25.6,64,30.45,-9999.0,Calm,Calm,-,N/A,,Clear,0,2013-01-06 02:56:00
8:15 PM,-16.6,-25.6,64,30.46,-9999.0,Calm,Calm,-,N/A,,Clear,0,2013-01-06 03:15:00
8:36 PM,-18.4,-27.4,63,30.47,-9999.0,Calm,Calm,-,N/A,,Clear,0,2013-01-06 03:36:00
8:56 PM,-20.2,-27.4,69,30.46,-9999.0,Calm,Calm,-,N/A,,Clear,0,2013-01-06 03:56:00
9:16 PM,-20.2,-27.4,69,30.47,-9999.0,Calm,Calm,-,N/A,,Clear,0,2013-01-06 04:16:00
9:36 PM,-20.2,-27.4,69,30.47,-9999.0,Calm,Calm,-,N/A,,Clear,0,2013-01-06 04:36:00
9:56 PM,-20.2,-27.4,69,30.47,-9999.0,Calm,Calm,-,N/A,,Clear,0,2013-01-06 04:56:00
10:16 PM,-22.0,-31.0,63,30.47,-9999.0,Calm,Calm,-,N/A,,Clear,0,2013-01-06 05:16:00
10:36 PM,-22.0,-29.2,69,30.48,-9999.0,Calm,Calm,-,N/A,,Clear,0,2013-01-06 05:36:00
10:56 PM,-22.0,-31.0,63,30.48,-9999.0,Calm,Calm,-,N/A,,Clear,0,2013-01-06 05:56:00
11:16 PM,-22.0,-29.2,69,30.47,-9999.0,Calm,Calm,-,N/A,,Clear,0,2013-01-06 06:16:00
11:36 PM,-22.0,-31.0,63,30.47,-9999.0,Calm,Calm,-,N/A,,Clear,0,2013-01-06 06:36:00
11:55 PM,-23.8,-31.0,69,30.47,-9999.0,Calm,Calm,-,N/A,,Clear,0,2013-01-06 06:55:00